Location: Red Rock Canyon
(36.1333°N, 115.4333°W)
Time: 06:50:14
(UTC-08:00)

ISS - Visible Passes

Search period start: 17 January 2018 00:00
Search period end: 27 January 2018 00:00
Orbit: 402 x 407 km, 51.6° (Epoch: 17 January)

Date Brightness Start Highest point End Pass type
(mag) Time Alt. Az. Time Alt. Az. Time Alt. Az.
17 Jan -2.7 05:35:53 26° WSW 05:36:19 27° SW 05:39:09 10° SSE visible
18 Jan -1.5 04:46:10 20° SSE 04:46:10 20° SSE 04:47:22 10° SE visible
21 Jan -1.0 18:42:45 10° S 18:42:53 11° S 18:42:53 11° S visible
22 Jan -0.5 19:25:46 10° SW 19:25:58 11° SW 19:25:58 11° SW visible
23 Jan -3.3 18:33:31 10° SSW 18:36:16 47° SSE 18:36:16 47° SSE visible
24 Jan -2.4 17:41:45 10° S 17:44:26 24° SE 17:46:29 14° E visible
24 Jan -1.0 19:17:56 10° W 19:19:10 18° W 19:19:10 18° W visible
25 Jan -3.3 18:25:09 10° WSW 18:28:20 54° NW 18:29:17 37° NNE visible
26 Jan -3.8 17:32:43 10° SW 17:35:57 69° SE 17:39:11 10° NE visible
26 Jan -1.0 19:10:43 10° WNW 19:11:59 14° NW 19:11:59 14° NW visible
